Flag for Netherlands Weather past 2 weeks in Leiden, Netherlands

Now
52 °F

Passing clouds.


Feels Like: 45 °F
Forecast: 42 / 46 °F
Wind: 29 mph from Northwest

Location: Rotterdam Zestienhoven Airport

Current Time: Mar 31, 2015 at 2:37:19 PM

Latest Report: Mar 31, 2015 at 1:55 PM


Visibility: N/A

Pressure: 29.62 "Hg

Humidity: 67%

Dew point: 41 °F

Location of LeidenLocation

Historic Weather in Leiden — Graph

°F

Leiden temperature yesterday

Maximum temperature yesterday: 48 °F (at 12:25 AM)
Minimum temperature yesterday: 43 °F (at 7:25 AM)
Average temperature yesterday: 46 °F

Past Weeks' High & Low Weather Summary

 TemperatureHumidityPressure
High61 °F (Mar 17, 2:25 PM)100% (Mar 16, 11:55 PM)30.42 "Hg (Mar 16, 11:55 PM)
Low30 °F (Mar 23, 5:25 AM)45% (Mar 17, 4:25 PM)29.21 "Hg (Mar 29, 4:55 PM)
Average44 °F84%29.98 "Hg
* Reported Mar 16 11:25 AM — Mar 31 12:55 PM, Leiden, Weather by CustomWeather, © 2015

Note: Actual official high and low records may vary slightly from our data, if they occured in-between our weather recording intervals... More about our weather records

Advertising

Leiden weather history for previous 24 hours

 ConditionsComfort  
Time TempWeatherWind HumidityBarometerVisibility
12:55 PM
Tue, Mar 31
52 °FPassing clouds.28 mph62%29.56 "HgN/A
12:25 PM50 °FScattered clouds.32 mph67%29.53 "HgN/A
11:55 AM50 °FBroken clouds.31 mph71%29.50 "HgN/A
11:25 AM50 °FBroken clouds.30 mph71%29.47 "HgN/A
10:55 AM50 °FScattered clouds.32 mph71%29.45 "HgN/A
10:25 AM50 °FPartly sunny.32 mph71%29.42 "HgN/A
9:55 AM52 °FPassing clouds.29 mph67%29.39 "HgN/A
9:25 AM50 °FPassing clouds.30 mph71%29.36 "HgN/A
8:55 AM50 °FPassing clouds.28 mph71%29.33 "HgN/A
8:25 AM50 °FPassing clouds.29 mph67%29.33 "HgN/A
7:55 AM50 °FPassing clouds.25 mph71%29.30 "HgN/A
7:25 AM50 °FPartly cloudy.24 mph82%29.27 "HgN/A
6:55 AM50 °FSprinkles. Passing clouds.30 mph88%29.27 "Hg3 mi
6:25 AM50 °FPartly cloudy.35 mph88%29.24 "Hg4 mi
5:55 AM50 °FLight rain. Partly cloudy.32 mph94%29.24 "HgN/A
5:25 AM50 °FLight rain. Overcast.36 mph94%29.24 "Hg2 mi
4:55 AM50 °FLight rain. Overcast.33 mph94%29.24 "Hg5 mi
4:25 AM50 °FDrizzle. Mostly cloudy.35 mph94%29.27 "Hg2 mi
3:55 AM50 °FMostly cloudy.33 mph94%29.27 "Hg6 mi
3:25 AM50 °FSprinkles. Mostly cloudy.32 mph94%29.27 "Hg2 mi
2:55 AM50 °FLight rain. Mostly cloudy.31 mph94%29.30 "Hg4 mi
2:25 AM48 °FSprinkles. Mostly cloudy.26 mph100%29.36 "Hg2 mi
1:55 AM46 °FLight rain. Mostly cloudy.22 mph100%29.39 "Hg6 mi
1:25 AM45 °FSprinkles. Mostly cloudy.18 mph93%29.45 "Hg3 mi
12:55 AM43 °FLight rain. Mostly cloudy.18 mph100%29.47 "Hg4 mi
12:25 AM43 °FSprinkles. Partly cloudy.17 mph93%29.53 "Hg3 mi
11:55 PM
Mon, Mar 30
43 °FSprinkles. Partly cloudy.15 mph93%29.56 "Hg5 mi
10:55 PM45 °FSprinkles. Mostly cloudy.23 mph81%29.65 "HgN/A
10:25 PM46 °FLight rain. Partly cloudy.18 mph66%29.68 "HgN/A
9:55 PM46 °FPartly cloudy.16 mph66%29.71 "HgN/A
9:25 PM46 °FPassing clouds.12 mph62%29.74 "HgN/A
8:55 PM46 °FPassing clouds.14 mph57%29.74 "HgN/A
8:25 PM46 °FClear.14 mph57%29.77 "HgN/A
7:55 PM46 °FClear.12 mph57%29.80 "HgN/A
7:25 PM46 °FClear.15 mph62%29.80 "HgN/A
6:55 PM46 °FClear.15 mph62%29.83 "HgN/A
6:25 PM46 °FCool.15 mph62%29.83 "HgN/A
5:55 PM48 °FPassing clouds.15 mph58%29.83 "HgN/A
5:25 PM48 °FPassing clouds.16 mph62%29.83 "HgN/A
4:55 PM48 °FClear.18 mph58%29.83 "HgN/A
4:25 PM48 °FClear.21 mph58%29.83 "HgN/A
3:55 PM46 °FPassing clouds.21 mph57%29.83 "HgN/A
3:25 PM46 °FPartly sunny.23 mph62%29.83 "HgN/A
2:55 PM45 °FScattered clouds.23 mph66%29.80 "HgN/A
2:25 PM46 °FPartly sunny.21 mph62%29.80 "HgN/A
Weather by CustomWeather, © 2015

See weather overviewHow to use our weather pages